Hourly Weather Basni

Today, 19 June, Saturday

Time Temperature Precipitation Wind Pressure Humidity
00:00 +34°C° 0 mm 5 mps 725 mmHg 51%
01:00 +33°C° 0 mm 6 mps 724 mmHg 55%
02:00 +32°C° 0 mm 6 mps 724 mmHg 60%
03:00 +32°C° 0 mm 5 mps 724 mmHg 59%
04:00 +32°C° 0 mm 4 mps 724 mmHg 58%
05:00 +31°C° 0 mm 3 mps 724 mmHg 58%
06:00 +32°C° 0 mm 4 mps 725 mmHg 56%
07:00 +33°C° 0 mm 4 mps 725 mmHg 54%
08:00 +33°C° 0 mm 5 mps 726 mmHg 53%
09:00 +34°C° 0 mm 5 mps 726 mmHg 49%
10:00 +36°C° 0 mm 5 mps 726 mmHg 45%
11:00 +37°C° 0 mm 5 mps 726 mmHg 42%
12:00 +37°C° 0 mm 4 mps 725 mmHg 39%
13:00 +38°C° 0 mm 4 mps 725 mmHg 36%
14:00 +40°C° 0 mm 4 mps 724 mmHg 34%
15:00 +39°C° 0 mm 5 mps 724 mmHg 37%
16:00 +38°C° 0 mm 7 mps 723 mmHg 41%
17:00 +38°C° 0 mm 9 mps 723 mmHg 44%
18:00 +37°C° 0 mm 9 mps 723 mmHg 48%
19:00 +35°C° 0 mm 8 mps 724 mmHg 51%
20:00 +34°C° 0 mm 8 mps 724 mmHg 55%
21:00 +33°C° 0 mm 8 mps 724 mmHg 57%
22:00 +33°C° 0 mm 8 mps 724 mmHg 58%
23:00 +32°C° 0 mm 8 mps 724 mmHg 59%

Tomorrow, 20 June, Sunday

Time Temperature Precipitation Wind Pressure Humidity
00:00 +32°C° 0 mm 7 mps 724 mmHg 60%
01:00 +32°C° 0 mm 7 mps 724 mmHg 60%
02:00 +30°C° 0 mm 6 mps 724 mmHg 60%
03:00 +30°C° 0 mm 6 mps 724 mmHg 62%
04:00 +29°C° 0 mm 6 mps 724 mmHg 64%
05:00 +29°C° 0 mm 6 mps 725 mmHg 65%
06:00 +30°C° 0 mm 6 mps 725 mmHg 63%
07:00 +32°C° 0 mm 6 mps 726 mmHg 61%
08:00 +32°C° 0 mm 6 mps 726 mmHg 58%
09:00 +34°C° 0 mm 6 mps 726 mmHg 53%
10:00 +35°C° 0 mm 6 mps 726 mmHg 48%
11:00 +38°C° 0 mm 6 mps 726 mmHg 43%
12:00 +36°C° 0 mm 7 mps 726 mmHg 45%
13:00 +36°C° 0 mm 7 mps 726 mmHg 48%
14:00 +35°C° 0 mm 8 mps 725 mmHg 50%
15:00 +35°C° 0 mm 7 mps 725 mmHg 49%
16:00 +35°C° 0 mm 7 mps 725 mmHg 49%
17:00 +35°C° 0 mm 7 mps 725 mmHg 48%
18:00 +34°C° 0 mm 7 mps 725 mmHg 50%
19:00 +34°C° 0 mm 7 mps 725 mmHg 51%
20:00 +33°C° 0 mm 7 mps 726 mmHg 52%
21:00 +33°C° 0 mm 7 mps 726 mmHg 53%
22:00 +33°C° 0 mm 6 mps 726 mmHg 55%
23:00 +32°C° 0 mm 6 mps 726 mmHg 56%

Day after tomorrow, 21 June, Monday

Time Temperature Precipitation Wind Pressure Humidity
00:00 +33°C° 0 mm 6 mps 726 mmHg 56%
01:00 +33°C° 0 mm 5 mps 726 mmHg 55%
02:00 +33°C° 0 mm 5 mps 726 mmHg 54%
03:00 +32°C° 0 mm 5 mps 726 mmHg 56%
04:00 +32°C° 0 mm 6 mps 726 mmHg 57%
05:00 +32°C° 0 mm 6 mps 726 mmHg 59%
06:00 +32°C° 0.1 mm 6 mps 727 mmHg 59%
07:00 +32°C° 0.1 mm 6 mps 728 mmHg 59%
08:00 +32°C° 0.1 mm 5 mps 728 mmHg 60%
09:00 +33°C° 0 mm 6 mps 728 mmHg 56%
10:00 +34°C° 0 mm 6 mps 728 mmHg 52%
11:00 +35°C° 0 mm 6 mps 728 mmHg 48%
12:00 +35°C° 0 mm 5 mps 728 mmHg 45%
13:00 +36°C° 0 mm 4 mps 727 mmHg 42%
14:00 +36°C° 0 mm 4 mps 727 mmHg 38%
15:00 +37°C° 0 mm 3 mps 727 mmHg 37%
16:00 +37°C° 0 mm 2 mps 726 mmHg 35%
17:00 +38°C° 0 mm 2 mps 726 mmHg 33%
18:00 +38°C° 0 mm 2 mps 726 mmHg 33%
19:00 +37°C° 0 mm 3 mps 726 mmHg 33%
20:00 +37°C° 0 mm 3 mps 727 mmHg 34%
21:00 +36°C° 0 mm 4 mps 727 mmHg 38%
22:00 +35°C° 0 mm 5 mps 727 mmHg 43%
23:00 +34°C° 0 mm 6 mps 727 mmHg 47%

22 June, Tuesday

Time Temperature Precipitation Wind Pressure Humidity
00:00 +34°C° 0 mm 6 mps 727 mmHg 50%
01:00 +33°C° 0 mm 6 mps 727 mmHg 52%
02:00 +33°C° 0 mm 6 mps 726 mmHg 54%
03:00 +32°C° 0 mm 6 mps 727 mmHg 54%
04:00 +32°C° 0 mm 5 mps 727 mmHg 55%
05:00 +32°C° 0 mm 5 mps 727 mmHg 56%
06:00 +33°C° 0 mm 6 mps 727 mmHg 55%
07:00 +33°C° 0 mm 6 mps 728 mmHg 54%
08:00 +34°C° 0 mm 7 mps 728 mmHg 53%
09:00 +35°C° 0 mm 6 mps 728 mmHg 48%
10:00 +36°C° 0 mm 6 mps 728 mmHg 44%
11:00 +39°C° 0 mm 6 mps 728 mmHg 39%
12:00 +40°C° 0 mm 6 mps 727 mmHg 36%
13:00 +40°C° 0 mm 6 mps 727 mmHg 33%
14:00 +41°C° 0 mm 7 mps 727 mmHg 30%
15:00 +41°C° 0 mm 7 mps 726 mmHg 29%
16:00 +41°C° 0 mm 7 mps 726 mmHg 28%
17:00 +41°C° 0 mm 6 mps 726 mmHg 27%
18:00 +41°C° 0 mm 6 mps 726 mmHg 29%
19:00 +40°C° 0 mm 6 mps 727 mmHg 31%
20:00 +39°C° 0 mm 6 mps 727 mmHg 33%
21:00 +38°C° 0 mm 6 mps 727 mmHg 37%
22:00 +38°C° 0 mm 6 mps 727 mmHg 40%
23:00 +36°C° 0 mm 6 mps 727 mmHg 44%

23 June, Wednesday

Time Temperature Precipitation Wind Pressure Humidity
00:00 +35°C° 0 mm 6 mps 727 mmHg 45%
01:00 +35°C° 0 mm 6 mps 726 mmHg 46%
02:00 +34°C° 0 mm 7 mps 726 mmHg 47%
03:00 +34°C° 0 mm 7 mps 726 mmHg 48%
04:00 +33°C° 0 mm 6 mps 726 mmHg 50%
05:00 +33°C° 0 mm 6 mps 726 mmHg 52%
06:00 +33°C° 0 mm 7 mps 727 mmHg 51%
07:00 +34°C° 0 mm 8 mps 727 mmHg 51%
08:00 +34°C° 0 mm 8 mps 728 mmHg 51%
09:00 +37°C° 0 mm 8 mps 728 mmHg 46%
10:00 +38°C° 0 mm 8 mps 728 mmHg 41%
11:00 +40°C° 0 mm 7 mps 728 mmHg 36%
12:00 +41°C° 0 mm 7 mps 727 mmHg 33%
13:00 +43°C° 0 mm 7 mps 727 mmHg 31%
14:00 +44°C° 0 mm 7 mps 727 mmHg 28%
15:00 +44°C° 0 mm 7 mps 726 mmHg 27%
16:00 +44°C° 0 mm 7 mps 726 mmHg 27%
17:00 +44°C° 0 mm 7 mps 725 mmHg 26%
18:00 +43°C° 0 mm 7 mps 726 mmHg 28%
19:00 +41°C° 0 mm 7 mps 726 mmHg 31%
20:00 +40°C° 0 mm 7 mps 726 mmHg 33%
21:00 +39°C° 0 mm 8 mps 726 mmHg 36%
22:00 +38°C° 0 mm 8 mps 726 mmHg 40%
23:00 +37°C° 0 mm 8 mps 726 mmHg 43%

24 June, Thursday

Time Temperature Precipitation Wind Pressure Humidity
00:00 +37°C° 0 mm 8 mps 726 mmHg 44%
01:00 +35°C° 0 mm 8 mps 726 mmHg 45%
02:00 +35°C° 0 mm 8 mps 725 mmHg 46%
03:00 +34°C° 0 mm 8 mps 725 mmHg 48%
04:00 +33°C° 0 mm 8 mps 725 mmHg 51%
05:00 +33°C° 0 mm 8 mps 725 mmHg 53%
06:00 +33°C° 0 mm 8 mps 726 mmHg 53%
07:00 +34°C° 0 mm 9 mps 726 mmHg 52%
08:00 +34°C° 0 mm 9 mps 727 mmHg 51%
09:00 +37°C° 0 mm 9 mps 726 mmHg 45%
10:00 +38°C° 0 mm 9 mps 726 mmHg 39%
11:00 +40°C° 0 mm 9 mps 726 mmHg 34%
12:00 +41°C° 0 mm 8 mps 726 mmHg 31%
13:00 +43°C° 0 mm 7 mps 725 mmHg 29%
14:00 +44°C° 0 mm 7 mps 724 mmHg 26%
15:00 +44°C° 0 mm 7 mps 724 mmHg 26%
16:00 +44°C° 0 mm 6 mps 724 mmHg 26%
17:00 +44°C° 0 mm 6 mps 723 mmHg 26%
18:00 +43°C° 0 mm 7 mps 724 mmHg 28%
19:00 +41°C° 0 mm 7 mps 724 mmHg 30%
20:00 +40°C° 0 mm 7 mps 724 mmHg 33%
21:00 +39°C° 0 mm 8 mps 724 mmHg 36%
22:00 +38°C° 0 mm 9 mps 724 mmHg 40%
23:00 +37°C° 0 mm 9 mps 724 mmHg 43%
Show more